STARLINK-2027 (47645 NORAD) Tracking and Keplerian Element Data

This shows tracking and keplerian element data for the satellite.

Feedback or suggestion? Click here.




ElementValue
Catalog47645
NameSTARLINK-2027
Epoch Orbit182
Epoch Day99.91667824
Epoch Year2021
RAAN198.8743
Inclination53.0478
Eccentricity0.0001653
Argument of Perigee48.6729
Mean Anonmoly203.8199
Mean Motion15.7335001
Decay Rate-0.00607879
L11 47645U 21012AB 21099.91667824 -.00607879 00000-0 -46169-2 0 9993
L22 47645 53.0478 198.8743 0001653 48.6729 203.8199 15.73350010 1824

Live tracking and technical data element details for STARLINK-2027 (NORAD 47645). STARLINK-2027 can be tracked NOW for your location showing map with azimuth and elevation plus other details from your city location.

Track the satellite on the map from your city or location and see movement details for azimuth, elevation, latitude, longitude, range, height, and movement on the map or in text.







IsCatalogInMostPopularTable: catalog: 47645, numindb: 15
Update: records affected: 1



GetName: 47645 STARLINK-2027

Hit Count: updated at: Sat, 10 Apr 2021 19:18:16 GMT